Location: Mococo
(38.0255°N, 122.1161°W)
Time: 03:56:05
(UTC+00:00)

Cosmos 2082 - Pass Details

Date: 13 February 2026
Orbit: 831 x 855 km, 71.0° (Epoch: 7 March)

Event Time Altitude Azimuth Distance (km) Brightness Sun altitude
Rises 13:58:26 0° 339° (NNW) 3,425 6.6 -12.8°
Reaches altitude 10° 14:00:54 10° 341° (NNW) 2,483 5.9 -12.3°
Maximum altitude 14:06:37 75° 67° (ENE) 878 3.9 -11.2°
Drops below altitude 10° 14:12:15 10° 153° (SSE) 2,453 6.6 -10.1°
Sets 14:14:41 0° 155° (SSE) 3,380 7.4 -9.6°
